�������l�o���
Date,Time,MP-1(��Sv/h),MP-2(��Sv/h),MP-3(��Sv/h),MP-4(��Sv/h),MP-5(��Sv/h),MP-6(��Sv/h),MP-7(��Sv/h),MP-8(��Sv/h),����,����(m/s),���J
2019/08/06,00:00,0.765,1.095,0.748,1.323,0.979,0.434,0.751,0.705,�k,0.6,��
2019/08/06,00:10,0.764,1.098,0.748,1.320,0.979,0.433,0.749,0.706,��쐼,0.6,��
2019/08/06,00:20,0.765,1.096,0.748,1.322,0.979,0.434,0.748,0.707,-,CALM,��
2019/08/06,00:30,0.766,1.098,0.750,1.321,0.977,0.434,0.749,0.706,��쐼,1.2,��
2019/08/06,00:40,0.765,1.096,0.749,1.320,0.979,0.434,0.750,0.707,��쐼,1.1,��
2019/08/06,00:50,0.766,1.094,0.750,1.319,0.978,0.434,0.748,0.707,��쐼,0.6,��
2019/08/06,01:00,0.765,1.098,0.749,1.323,0.978,0.433,0.751,0.706,�k�k��,0.6,��
2019/08/06,01:10,0.765,1.098,0.750,1.325,0.978,0.435,0.750,0.709,�k�k��,1.2,��
2019/08/06,01:20,0.766,1.096,0.751,1.322,0.980,0.433,0.751,0.708,�k�k��,1.7,��
2019/08/06,01:30,0.766,1.095,0.751,1.321,0.979,0.433,0.752,0.707,�k,2.9,��
2019/08/06,01:40,0.764,1.096,0.748,1.322,0.976,0.434,0.752,0.708,�k�k��,2.9,��
2019/08/06,01:50,0.765,1.093,0.750,1.323,0.978,0.432,0.749,0.708,�k�k��,2.6,��
2019/08/06,02:00,0.765,1.096,0.750,1.323,0.975,0.434,0.750,0.709,�k,2.6,��
2019/08/06,02:10,0.764,1.096,0.748,1.323,0.978,0.433,0.750,0.708,�k,2.9,��
2019/08/06,02:20,0.765,1.094,0.749,1.322,0.978,0.433,0.752,0.706,�k�k��,3.0,��
2019/08/06,02:30,0.764,1.095,0.749,1.321,0.978,0.432,0.750,0.708,�k,2.6,��
2019/08/06,02:40,0.766,1.095,0.750,1.322,0.979,0.434,0.750,0.707,�k,2.3,��
2019/08/06,02:50,0.763,1.096,0.752,1.322,0.980,0.434,0.748,0.706,�k,2.3,��
2019/08/06,03:00,0.767,1.093,0.749,1.323,0.978,0.433,0.749,0.706,�k�k��,1.7,��
2019/08/06,03:10,0.764,1.095,0.749,1.322,0.978,0.432,0.748,0.705,�k�k��,1.1,��
2019/08/06,03:20,0.764,1.094,0.750,1.322,0.976,0.432,0.749,0.707,�k�k��,2.3,��
2019/08/06,03:30,0.765,1.094,0.751,1.321,0.978,0.433,0.750,0.706,�k�k��,3.1,��
2019/08/06,03:40,0.765,1.097,0.748,1.323,0.973,0.435,0.749,0.707,�k�k��,2.6,��
2019/08/06,03:50,0.763,1.093,0.749,1.323,0.976,0.433,0.750,0.707,�k,2.0,��
2019/08/06,04:00,0.764,1.097,0.747,1.323,0.977,0.434,0.750,0.709,�k,2.5,��
2019/08/06,04:10,0.763,1.094,0.750,1.322,0.978,0.431,0.748,0.707,�k�k��,1.7,��
2019/08/06,04:20,0.764,1.096,0.749,1.322,0.977,0.433,0.749,0.706,�k,2.0,��
2019/08/06,04:30,0.765,1.093,0.749,1.321,0.975,0.432,0.748,0.706,�k�k��,1.7,��
2019/08/06,04:40,0.764,1.094,0.750,1.323,0.977,0.433,0.748,0.707,�k,2.3,��
2019/08/06,04:50,0.762,1.094,0.750,1.324,0.976,0.431,0.749,0.708,�k,2.6,��
2019/08/06,05:00,0.765,1.092,0.750,1.324,0.975,0.431,0.749,0.705,�k�k��,3.3,��
2019/08/06,05:10,0.762,1.093,0.750,1.322,0.975,0.432,0.749,0.707,�k,3.2,��
2019/08/06,05:20,0.763,1.095,0.748,1.323,0.978,0.432,0.748,0.705,�k,3.3,��
2019/08/06,05:30,0.764,1.097,0.750,1.323,0.976,0.432,0.749,0.705,�k�k��,2.5,��
2019/08/06,05:40,0.763,1.094,0.749,1.322,0.976,0.433,0.749,0.708,�k,2.8,��
2019/08/06,05:50,0.765,1.093,0.749,1.320,0.977,0.432,0.749,0.707,�k�k��,3.0,��
2019/08/06,06:00,0.764,1.097,0.750,1.325,0.977,0.435,0.747,0.706,�k�k��,2.0,��
2019/08/06,06:10,0.764,1.097,0.750,1.321,0.979,0.434,0.750,0.706,�k�k��,1.5,��
2019/08/06,06:20,0.765,1.096,0.748,1.322,0.978,0.433,0.748,0.707,�k�k��,1.9,��
2019/08/06,06:30,0.763,1.095,0.748,1.322,0.977,0.433,0.751,0.705,�k�k��,2.0,��
2019/08/06,06:40,0.764,1.097,0.749,1.321,0.977,0.432,0.749,0.707,�k,2.3,��
2019/08/06,06:50,0.765,1.091,0.749,1.319,0.976,0.432,0.749,0.707,�k,2.2,��
2019/08/06,07:00,0.764,1.095,0.748,1.322,0.978,0.433,0.749,0.706,�k,1.7,��
2019/08/06,07:10,0.765,1.094,0.749,1.323,0.977,0.434,0.751,0.706,�k,1.9,��
2019/08/06,07:20,0.765,1.094,0.749,1.320,0.975,0.435,0.750,0.706,�k,1.7,��
2019/08/06,07:30,0.765,1.092,0.750,1.323,0.978,0.432,0.747,0.707,�k,1.9,��
2019/08/06,07:40,0.764,1.095,0.749,1.322,0.978,0.431,0.750,0.706,�k�k��,2.5,��
2019/08/06,07:50,0.765,1.092,0.746,1.323,0.975,0.434,0.747,0.707,�k�k��,2.5,��
2019/08/06,08:00,0.763,1.095,0.748,1.322,0.978,0.432,0.750,0.707,�k�k��,2.5,��
2019/08/06,08:10,0.764,1.093,0.748,1.321,0.976,0.432,0.749,0.705,�k�k��,2.3,��
2019/08/06,08:20,0.765,1.091,0.748,1.324,0.976,0.432,0.750,0.707,�k�k��,2.9,��
2019/08/06,08:30,0.764,1.091,0.747,1.324,0.980,0.431,0.748,0.708,�k�k��,3.2,��
2019/08/06,08:40,0.763,1.090,0.744,1.323,0.979,0.433,0.749,0.707,�k,3.0,��
2019/08/06,08:50,0.764,1.088,0.745,1.320,0.977,0.431,0.750,0.708,�k,2.8,��
2019/08/06,09:00,0.764,1.095,0.747,1.322,0.979,0.432,0.751,0.709,�k,1.9,��
2019/08/06,09:10,0.766,1.088,0.743,1.322,0.977,0.432,0.751,0.709,�k,2.0,��
2019/08/06,09:20,0.766,1.089,0.747,1.321,0.978,0.433,0.751,0.708,�k�k��,1.9,��
2019/08/06,09:30,0.765,1.091,0.750,1.323,0.980,0.430,0.750,0.708,�k�k��,1.5,��
2019/08/06,09:40,0.765,1.090,0.746,1.324,0.978,0.430,0.749,0.706,�k�k��,2.0,��
2019/08/06,09:50,0.762,1.089,0.745,1.323,0.978,0.431,0.750,0.705,�k��,2.0,��
2019/08/06,10:00,0.763,1.087,0.746,1.323,0.977,0.430,0.749,0.706,�k�k��,2.5,��
2019/08/06,10:10,0.766,1.089,0.749,1.323,0.976,0.430,0.748,0.706,�k�k��,2.6,��
2019/08/06,10:20,0.764,1.088,0.746,1.324,0.977,0.430,0.749,0.708,�k��,2.8,��
2019/08/06,10:30,0.764,1.090,0.745,1.323,0.978,0.431,0.749,0.706,���k��,2.6,��
2019/08/06,10:40,0.766,1.090,0.747,1.323,0.977,0.429,0.748,0.706,���k��,3.0,��
2019/08/06,10:50,0.765,1.092,0.744,1.322,0.979,0.430,0.748,0.706,���k��,2.9,��
2019/08/06,11:00,0.766,1.090,0.744,1.325,0.980,0.431,0.749,0.706,���k��,2.8,��
2019/08/06,11:10,0.768,1.091,0.746,1.323,0.980,0.432,0.748,0.707,���k��,3.1,��
2019/08/06,11:20,0.765,1.094,0.746,1.325,0.978,0.432,0.750,0.708,���k��,3.2,��
2019/08/06,11:30,0.769,1.092,0.749,1.322,0.980,0.432,0.749,0.706,��,3.1,��
2019/08/06,11:40,0.767,1.088,0.747,1.321,0.981,0.431,0.749,0.707,��,3.0,��
2019/08/06,11:50,0.768,1.094,0.749,1.324,0.983,0.432,0.750,0.706,���쓌,1.7,��
2019/08/06,12:00,0.768,1.094,0.751,1.323,0.986,0.433,0.750,0.708,���쓌,2.8,��
2019/08/06,12:10,0.766,1.096,0.749,1.323,0.982,0.433,0.751,0.707,��,2.3,��
2019/08/06,12:20,0.765,1.097,0.751,1.323,0.984,0.432,0.751,0.708,���쓌,3.0,��
2019/08/06,12:30,0.768,1.098,0.749,1.325,0.984,0.432,0.753,0.707,���쓌,2.6,��
2019/08/06,12:40,0.766,1.094,0.750,1.324,0.983,0.433,0.749,0.707,���쓌,2.8,��
2019/08/06,12:50,0.766,1.096,0.752,1.324,0.983,0.432,0.749,0.709,���쓌,2.6,��
2019/08/06,13:00,0.767,1.098,0.750,1.325,0.983,0.431,0.749,0.709,���쓌,3.0,��
2019/08/06,13:10,0.765,1.094,0.752,1.327,0.983,0.431,0.750,0.707,���쓌,2.5,��
2019/08/06,13:20,0.769,1.098,0.750,1.326,0.983,0.433,0.747,0.707,�쓌,3.7,��
2019/08/06,13:30,0.768,1.092,0.753,1.326,0.985,0.433,0.749,0.710,�쓌,3.0,��
2019/08/06,13:40,0.768,1.094,0.748,1.321,0.985,0.431,0.752,0.706,�쓌,3.2,��
2019/08/06,13:50,0.767,1.092,0.753,1.324,0.983,0.433,0.752,0.707,��쓌,3.6,��
2019/08/06,14:00,0.767,1.093,0.750,1.327,0.985,0.431,0.752,0.708,��쓌,2.6,��
2019/08/06,14:10,0.768,1.094,0.750,1.326,0.984,0.431,0.752,0.707,��쓌,2.5,��
2019/08/06,14:20,0.768,1.097,0.751,1.325,0.986,0.430,0.753,0.706,��쓌,2.8,��
2019/08/06,14:30,0.768,1.098,0.749,1.327,0.984,0.431,0.753,0.707,��쓌,3.8,��
2019/08/06,14:40,0.769,1.098,0.752,1.326,0.986,0.432,0.750,0.708,��쓌,5.3,��
2019/08/06,14:50,0.771,1.099,0.754,1.326,0.984,0.431,0.751,0.709,��쓌,5.6,��
2019/08/06,15:00,0.768,1.097,0.752,1.326,0.984,0.432,0.752,0.708,��쓌,6.2,��
2019/08/06,15:10,0.770,1.096,0.750,1.324,0.985,0.431,0.752,0.710,��,7.4,��
2019/08/06,15:20,0.771,1.094,0.752,1.327,0.986,0.433,0.753,0.709,��쓌,7.0,��
2019/08/06,15:30,0.769,1.097,0.752,1.326,0.986,0.432,0.751,0.708,��,4.6,��
2019/08/06,15:40,0.769,1.097,0.754,1.326,0.985,0.432,0.753,0.707,��쓌,3.4,��
2019/08/06,15:50,0.770,1.098,0.753,1.328,0.986,0.432,0.751,0.706,��쓌,3.5,��
2019/08/06,16:00,0.769,1.098,0.751,1.326,0.986,0.432,0.753,0.707,��,4.0,��
2019/08/06,16:10,0.766,1.099,0.752,1.327,0.985,0.434,0.752,0.708,��,4.2,��
2019/08/06,16:20,0.769,1.099,0.753,1.329,0.985,0.432,0.753,0.709,��,4.0,��
2019/08/06,16:30,0.770,1.102,0.753,1.329,0.986,0.433,0.751,0.709,��,3.0,��
2019/08/06,16:40,0.770,1.101,0.751,1.329,0.984,0.431,0.752,0.706,��쓌,2.3,��
2019/08/06,16:50,0.768,1.101,0.750,1.327,0.985,0.432,0.751,0.707,��,3.9,��
2019/08/06,17:00,0.768,1.098,0.752,1.328,0.983,0.429,0.749,0.707,��,2.8,��
2019/08/06,17:10,0.768,1.100,0.753,1.329,0.983,0.430,0.751,0.708,��쐼,2.5,��
2019/08/06,17:20,0.768,1.102,0.752,1.328,0.984,0.429,0.752,0.706,��쐼,1.1,��
2019/08/06,17:30,0.768,1.098,0.752,1.329,0.985,0.431,0.750,0.707,���쐼,1.1,��
2019/08/06,17:40,0.769,1.099,0.752,1.328,0.984,0.431,0.750,0.708,��,1.9,��
2019/08/06,17:50,0.769,1.099,0.750,1.328,0.985,0.433,0.750,0.708,��,2.2,��
2019/08/06,18:00,0.769,1.101,0.753,1.327,0.983,0.432,0.749,0.708,��,2.5,��
2019/08/06,18:10,0.769,1.098,0.752,1.329,0.985,0.432,0.751,0.707,��,2.5,��
2019/08/06,18:20,0.768,1.101,0.751,1.327,0.984,0.431,0.752,0.706,��,2.6,��
2019/08/06,18:30,0.767,1.102,0.752,1.330,0.982,0.431,0.751,0.708,�쐼,2.0,��
2019/08/06,18:40,0.767,1.101,0.754,1.328,0.987,0.432,0.751,0.707,��쐼,1.7,��
2019/08/06,18:50,0.768,1.103,0.753,1.328,0.986,0.432,0.750,0.707,�쐼,1.9,��
2019/08/06,19:00,0.768,1.100,0.751,1.328,0.983,0.432,0.750,0.707,���쐼,1.7,��
2019/08/06,19:10,0.771,1.102,0.753,1.326,0.985,0.432,0.752,0.709,��,0.9,��
2019/08/06,19:20,0.770,1.102,0.752,1.329,0.987,0.433,0.751,0.708,��,1.4,��
2019/08/06,19:30,0.769,1.101,0.754,1.328,0.985,0.432,0.753,0.709,���k��,1.5,��
2019/08/06,19:40,0.770,1.104,0.752,1.332,0.986,0.433,0.751,0.708,���k��,1.2,��
2019/08/06,19:50,0.770,1.103,0.756,1.331,0.986,0.435,0.753,0.708,�k��,1.9,��
2019/08/06,20:00,0.770,1.101,0.753,1.332,0.988,0.434,0.751,0.708,�k��,2.8,��
2019/08/06,20:10,0.770,1.100,0.755,1.328,0.985,0.433,0.752,0.709,�k��,2.5,��
2019/08/06,20:20,0.771,1.102,0.754,1.332,0.988,0.432,0.752,0.709,�k��,1.5,��
2019/08/06,20:30,0.771,1.101,0.755,1.327,0.987,0.433,0.752,0.711,�k��,2.0,��
2019/08/06,20:40,0.771,1.103,0.756,1.330,0.986,0.433,0.751,0.710,�k��,2.5,��
2019/08/06,20:50,0.773,1.102,0.753,1.330,0.988,0.435,0.752,0.711,�k��,1.5,��
2019/08/06,21:00,0.772,1.102,0.757,1.329,0.988,0.435,0.753,0.710,�k�k��,1.7,��
2019/08/06,21:10,0.772,1.102,0.754,1.331,0.989,0.435,0.753,0.711,�k��,1.5,��
2019/08/06,21:20,0.770,1.101,0.755,1.329,0.987,0.433,0.751,0.710,��,0.9,��
2019/08/06,21:30,0.771,1.103,0.756,1.331,0.986,0.436,0.752,0.711,���k��,0.9,��
2019/08/06,21:40,0.773,1.103,0.755,1.331,0.988,0.435,0.754,0.712,��,0.9,��
2019/08/06,21:50,0.771,1.103,0.757,1.331,0.984,0.435,0.755,0.710,�k��,0.6,��
2019/08/06,22:00,0.772,1.100,0.756,1.331,0.988,0.436,0.751,0.710,�k�k��,0.8,��
2019/08/06,22:10,0.772,1.102,0.756,1.332,0.988,0.435,0.755,0.710,�k�k��,0.8,��
2019/08/06,22:20,0.773,1.105,0.754,1.331,0.987,0.436,0.753,0.709,�k,1.2,��
2019/08/06,22:30,0.772,1.104,0.755,1.330,0.986,0.437,0.753,0.708,�k�k��,2.6,��
2019/08/06,22:40,0.769,1.103,0.755,1.331,0.987,0.435,0.752,0.711,�k�k��,3.9,��
2019/08/06,22:50,0.771,1.103,0.756,1.331,0.985,0.436,0.751,0.709,�k�k��,3.0,��
2019/08/06,23:00,0.772,1.100,0.754,1.331,0.986,0.435,0.753,0.711,�k,3.0,��
2019/08/06,23:10,0.770,1.102,0.754,1.330,0.986,0.436,0.753,0.708,�k,2.9,��
2019/08/06,23:20,0.768,1.101,0.752,1.331,0.987,0.434,0.752,0.711,�k,3.8,��
2019/08/06,23:30,0.768,1.101,0.755,1.332,0.985,0.434,0.752,0.710,�k,4.5,��
2019/08/06,23:40,0.768,1.100,0.753,1.327,0.986,0.432,0.752,0.709,�k,4.3,��
2019/08/06,23:50,0.770,1.102,0.753,1.332,0.986,0.434,0.752,0.708,�k,4.5,��
